sat.trackr.live / text

‹ back to catalog

STARLINK-31662

NORAD 59584 · 2024-076W

PAYLOAD ACTIVE UNKNOWN

§ Identity

Operator
Country
US
Launch date
2024-04-23
Launch site
AFETR
Launch vehicle
Mass (kg)
RCS (m²)

Purposes: comms

External: N2YO · Heavens-Above · Gunter

§ Orbital elements

Epoch: 2026-05-25T03:23:39.520032Z

Period
94.27 min
Inclination
43.0020°
Eccentricity
0.0001440
Mean motion
15.27572266 rev/d
Perigee alt
482.1 km
Apogee alt
484.1 km
Semi-major
6,861.2 km
B*
2.2372e-6
RAAN
297.3550°
Arg perigee
281.4820°
Mean anomaly
78.5869°
Rev number
11,819

§ Raw data

STARLINK-316621 59584U 24076W   26145.14142963 -.00000201  00000+0  22372-5 0  99922 59584  43.0020 297.3550 0001440 281.4820  78.5869 15.27572266118193

JSON: /api/v1/satellites/59584 · /tle

For live sub-satellite position, see the globe view (requires WebGL).

§ Visibility from observer

Set your observer location to see the next 7 days of passes ≥ 10°. The values pass through the URL so the page stays shareable.

No JS? Fill the form by hand. The geolocation button needs JavaScript.